#timestamp,LO_Frequency,Hit,StdDev 
1579590015.2,286046996.5,N
1579590035.9,286046997.0,N
1579590055.7,286046998.4,N
1579590075.6,286047000.9,N
1579590095.4,286046998.9,N
1579590115.3,286046996.7,N
1579590135.1,286046998.8,N
1579590136.0,286046998.8,N
1579590155.8,286046998.1,N
1579590175.7,286047000.9,N
1579590195.5,286046998.3,N
1579590215.3,286047004.0,N
1579590235.2,286047003.1,N
1579590255.0,286047003.7,N
1579590255.9,286047003.7,N
1579590275.8,286047003.3,N
1579590295.6,286047003.9,N
1579590315.4,286047001.7,N
1579590335.3,286047004.8,N
1579590355.1,286047005.3,N
1579590375.9,286047004.5,N
1579590395.7,286047005.6,N
1579590415.5,286047004.2,N
1579590435.4,286047005.2,N
1579590455.2,286047004.8,N
1579590475.1,286047002.7,N
1579590476.0,286047002.7,N
1579590495.8,286047000.0,N
1579590515.6,286047002.8,N
1579590535.5,286047001.9,N
1579590555.3,286047002.2,N
1579590575.1,286047002.1,N
1579590595.9,286047001.9,N
1579590615.7,286046999.8,N
1579590635.6,286047001.7,N
1579590655.4,286047003.1,N
1579590675.2,286047001.5,N
1579590695.1,286047001.4,N
1579590696.0,286047001.4,N
1579590715.8,286047001.6,N
1579590735.6,286047001.6,N
1579590755.5,286047004.0,N
1579590775.3,286047004.0,N
1579590795.2,286047001.5,N
1579590815.9,286047005.9,Y
1579590835.7,286047001.0,P
1579590855.6,286047001.5,N
1579590875.4,286046999.7,N
1579590895.2,286047002.1,N
1579590915.1,286047000.7,N
1579590916.0,286047000.7,N
1579590935.8,286046998.5,N
1579590955.7,286047000.7,N
1579590975.5,286046999.8,N
1579590995.3,286047001.1,N
1579591015.2,286047000.9,N
1579591035.0,286046999.7,N
1579591035.9,286046999.7,N
1579591055.8,286047000.3,N
1579591075.6,286046997.0,N
1579591095.4,286046998.9,N
1579591115.3,286046999.0,N
1579591135.1,286047000.4,N
1579591155.8,286047002.4,N
1579591175.7,286046998.1,N
1579591195.5,286046998.4,N
1579591215.4,286046998.3,N
1579591235.2,286046996.6,N
1579591255.0,286046999.0,N
1579591255.9,286046999.0,N
1579591275.8,286047000.8,N
1579591295.6,286047001.4,N
1579591315.5,286046998.2,N
1579591335.3,286046998.8,N
1579591355.1,286046997.7,N
1579591375.9,286046995.3,Y
1579591395.7,286046997.9,P
1579591415.6,286046998.8,N
1579591435.4,286046999.9,N
1579591455.2,286047000.6,N
1579591475.1,286047000.7,N
1579591476.0,286047000.7,N
1579591495.8,286046998.9,N
1579591515.6,286046999.4,N
1579591535.5,286047001.1,N
1579591555.3,286047000.1,N
1579591575.2,286047002.0,N
1579591595.9,286047001.7,N
1579591615.7,286046998.1,N
1579591635.6,286046997.0,N
1579591655.4,286046997.1,N
1579591675.2,286046998.6,N
1579591695.1,286047000.0,N
1579591696.0,286047000.0,N
1579591715.8,286047000.9,N
1579591735.7,286046998.9,N
1579591755.5,286046996.7,N
1579591775.3,286046996.7,N
1579591795.2,286046996.8,N
1579591815.0,286046999.0,N
1579591815.9,286046999.0,N
1579591835.8,286046999.4,N
1579591855.6,286046998.1,N
1579591875.4,286046998.6,N
1579591895.3,286046996.5,N
1579591915.1,286046995.0,Y
1579591935.9,286046996.6,P
1579591955.7,286046998.2,N
1579591975.5,286046997.0,N
1579591995.4,286046997.5,N
1579592015.2,286046998.3,N
1579592035.1,286046998.3,N
1579592036.0,286046998.3,N
1579592055.8,286047001.0,N
1579592075.6,286046998.7,N
1579592095.5,286047002.8,N
1579592115.3,286047000.9,N
1579592135.1,286046998.2,N
1579592155.9,286046998.5,N
1579592175.7,286046997.3,N
1579592195.6,286046999.6,N
1579592215.4,286046997.8,N
1579592235.2,286046996.6,N
1579592255.1,286046997.1,N
1579592256.0,286046997.1,N
1579592275.8,286046997.2,N
1579592295.7,286046998.4,N
1579592315.5,286046998.7,N
1579592335.3,286046998.8,N
1579592355.2,286046998.7,N
1579592375.0,286046996.9,N
1579592375.9,286046996.9,N
1579592395.8,286046997.1,N
1579592415.6,286046995.3,Y
1579592435.4,286046998.5,P
1579592455.3,286046998.3,P
1579592475.1,286046998.7,P
1579592495.8,286047000.3,N
1579592515.7,286046998.2,N
1579592535.5,286046998.8,N
1579592555.4,286047011.9,Y
1579592575.2,286047001.9,P
1579592595.0,286047002.2,N
1579592595.9,286047002.2,N
1579592615.8,286047002.4,N
1579592635.6,286047004.1,N
1579592655.5,286047001.6,N
1579592675.3,286047002.6,N
1579592695.1,286047000.7,N
1579592715.9,286047003.9,N
1579592735.7,286047002.1,N
1579592755.5,286047001.0,N
1579592775.4,286047001.0,N
1579592795.2,286047000.7,N
1579592815.1,286047000.5,N
1579592816.0,286047000.5,N
1579592835.8,286046999.7,N
1579592855.6,286047004.4,Y
1579592875.5,286047000.7,P
1579592895.3,286046999.7,N
1579592915.2,286047001.9,N
1579592935.9,286047002.0,N
1579592955.7,286047001.8,N
1579592975.6,286047002.5,Y
1579592995.4,286046998.6,P
1579593015.3,286046996.7,N
1579593035.1,286046999.3,N
1579593055.8,286046998.7,N
1579593075.7,286047000.0,N
1579593095.5,286047000.0,N
1579593115.4,286046998.2,N
1579593135.2,286047000.7,N
1579593155.0,286046999.3,N
1579593155.9,286046999.3,N
1579593175.8,286046999.3,N
1579593195.6,286046998.2,N
1579593215.5,286047001.1,N
1579593235.3,286046997.4,N
1579593255.1,286046995.0,Y
1579593275.9,286047001.1,P
1579593295.7,286047000.5,N
1579593315.5,286046999.8,N
1579593335.4,286046998.2,N
1579593355.2,286047000.6,N
1579593375.1,286047000.0,N
1579593376.0,286047000.0,N
1579593395.8,286046998.1,N
1579593415.6,286046998.4,N
1579593435.5,286046999.7,N
1579593455.3,286047002.3,N
1579593475.1,286047002.3,N
1579593495.9,286047004.3,Y
1579593515.7,286047002.0,P
1579593535.6,286047002.2,N
1579593555.4,286047000.5,N
1579593575.2,286046998.3,N
1579593595.1,286046998.8,N
1579593596.0,286046998.8,N
